Regional Weather Roundup
Issued by NWS

Home | Current Version | Previous Version | Graphics & Text | Print | Product List | Glossary On
Versions: 1 2 3 4 5 6 7 8 9 10 11 12 13 14 15 16 17 18 19 20 21 22 23 24 25 26 27 28 29 30 31 32 33 34 35 36 37 38 39 40 41 42 43 44 45 46 47 48 49 50
285
ASUS43 KLMK 200410
RWRKY
KENTUCKY REGIONAL WEATHER ROUNDUP
NATIONAL WEATHER SERVICE LOUISVILLE KY
1100 PM EST THU JAN 19 2017

NOTE "FAIR" INDICATES FEW OR NO CLOUDS BELOW 12,000 FEET
WITH NO SIGNIFICANT WEATHER AND/OR OBSTRUCTIONS TO VISIBILITY.

KYZ001>023-026-027-061>063-070>075-200500-
WESTERN AND SOUTH CENTRAL KENTUCKY

CITY           SKY/WX    TMP DP  RH WIND       PRES   REMARKS
PADUCAH        LGT RAIN  59  56  89 SW6       29.67R
HENDERSON      CLOUDY    54  50  87 CALM      29.66F
OWENSBORO      LGT RAIN  54  54 100 CALM      29.67F
HOPKINSVILLE   DRIZZLE   56  56 100 S3        29.69F
BOWLING GREEN  HVY RAIN  58  56  93 CALM      29.68F FOG
GLASGOW        RAIN     N/A N/A N/A SE9       29.67F
$$

KYZ024-025-028>034-038-045-046-053-200500-
NORTH CENTRAL KENTUCKY

CITY           SKY/WX    TMP DP  RH WIND       PRES   REMARKS
LOUISVILLE/SDF HVY RAIN  52  50  93 CALM      29.70F FOG
LOUISVILLE/LOU HVY RAIN  53  51  93 CALM      29.71F FOG
FORT KNOX      LGT RAIN  52  52 100 E8        29.67F
$$

KYZ035>037-039>044-047>052-055>060-089>105-200500-
NORTHEAST KENTUCKY

CITY           SKY/WX    TMP DP  RH WIND       PRES   REMARKS
LEXINGTON      LGT RAIN  51  48  89 SE9       29.75F
COVINGTON      LGT RAIN  47  43  86 E9        29.75F FOG
FRANKFORT      LGT RAIN  51  48  89 SE8       29.73F FOG
$$

KYZ054-064>069-076>088-106>120-200500-
SOUTHEAST KENTUCKY

CITY           SKY/WX    TMP DP  RH WIND       PRES   REMARKS
JACKSON        LGT RAIN  49  43  80 E3        29.82F
LONDON         LGT RAIN  51  47  86 SE3       29.79F
SOMERSET       DRIZZLE   50  50 100 SE5       29.78F
MIDDLESBORO    CLOUDY    51  49  94 NW5       29.83F
MONTICELLO     LGT RAIN  56  53  90 SE10      29.77F
$$





USA.gov is the U.S. government's official web portal to all federal, state and local government web resources and services.